Regional Weather Roundup
Issued by NWS

Home | Current Version | Previous Version | Graphics & Text | Print | Product List | Glossary Off
Versions: 1 2 3 4 5 6 7 8 9 10 11 12 13 14 15 16 17 18 19 20 21 22 23 24 25 26 27 28 29 30 31 32 33 34 35 36 37 38 39 40 41 42 43 44 45 46 47 48 49 50

000
ASUS43 KDMX 241307
RWRIA

WEATHER ROUNDUP FOR IOWA
NATIONAL WEATHER SERVICE DES MOINES IA
700 AM CST WED DEC 24 2014

NOTE: "FAIR" INDICATES FEW OR NO CLOUDS BELOW 12,000 FEET WITH NO
SIGNIFICANT WEATHER AND/OR OBSTRUCTIONS TO VISIBILITY.

* - THESE STATIONS ARE NOT NWS STATIONS...THUS NOT UNDER NWS
QUALITY CONTROL.  THEY ALSO DO NOT REPORT WEATHER SUCH
AS PRECIPITATION OR FOG.

IAZ001>003-012>014-020>022-031>034-043>046-241400-
   NORTHWEST IOWA

CITY           SKY/WX    TMP DP  RH WIND       PRES   REMARKS
CARROLL *      CLOUDY    32  32 100 NW17      29.81F WCI  21
CHEROKEE *     CLOUDY    32  30  93 N8        29.85S WCI  25
DENISON *      CLOUDY    32  32 100 N13       29.82S WCI  22
LE MARS *      CLOUDY    32  30  93 NW10      29.89S WCI  24
ORANGE CITY *  CLOUDY    32  30  93 NW12      29.86S FOG     WCI  23
SHELDON *      CLOUDY    32  32 100 N13       29.84F WCI  22
SIOUX CITY     CLOUDY    32  29  88 NW14      29.89F WCI  22
SPENCER        CLOUDY    32  29  88 N15       29.83S WCI  22
STORM LAKE *   CLOUDY    30  30 100 N13       29.83F WCI  20
$$

IAZ055>058-069>071-079>083-090>094-241400-
   SOUTHWEST IOWA

CITY           SKY/WX    TMP DP  RH WIND       PRES   REMARKS
ATLANTIC *     CLOUDY    34  32  93 N16       29.82F WCI  23
AUDUBON *      CLEAR     34  28  80 NW12      29.82F WCI  25
CLARINDA *     CLOUDY    36  32  87 NW16G22   29.85S WCI  26
COUNCIL BLFS * CLOUDY    32  32 100 NW16      29.85S WCI  21
CRESTON *      CLOUDY    34  34 100 N18G24    29.79S WCI  23
HARLAN  *      CLOUDY    32  32 100 NW18      29.86F WCI  20
LAMONI         FLURRIES  34  32  92 N18G25    29.77R WCI  23
RED OAK *      MOCLDY    34  32  93 NW13      29.83F WCI  25
SHENANDOAH *   CLOUDY    34  32  93 NW14      29.86F WCI  24
$$

IAZ047>049-059>061-072>074-084-241400-
   CENTRAL IOWA

CITY           SKY/WX    TMP DP  RH WIND       PRES   REMARKS
AMES           CLOUDY    33  31  92 N16       29.77S WCI  23
ANKENY *       CLOUDY    34  34 100 NW15G22   29.77S WCI  24
CHARITON *     CLOUDY    34  32  93 N14       29.76S WCI  24
DES MOINES     FLURRIES  35  32  88 N13       29.78S WCI  26
GRINNELL*      CLOUDY    34  32  93 NW13      29.74S WCI  25
KNOXVILLE *    CLOUDY    34  32  93 NW13      29.75R WCI  25
MARSHALLTOWN   CLOUDY    34  31  88 N15       29.73S WCI  24
PELLA *        CLOUDY    34  32  93 N10       29.77R WCI  26
PERRY *        CLOUDY    34  34 100 NW17      29.79F FOG     WCI  23
$$

IAZ004>006-015-016-023>025-035-036-241400-
   NORTH CENTRAL IOWA

CITY           SKY/WX    TMP DP  RH WIND       PRES   REMARKS
ALGONA *       CLOUDY    32  32 100 N14       29.79F WCI  22
CLARION *      MIX PCPN  32  32 100 N18       29.76F WCI  20
ESTHERVILLE    CLOUDY    31  29  92 NW16      29.81S WCI  20
FORT DODGE *   CLOUDY    34  28  80 NW8G17    29.79F WCI  27
MASON CITY     LGT SNOW  33  31  92 NW17      29.76F FOG     WCI  22
FOREST CITY *  CLOUDY    34  32  93 NW15      29.75F WCI  24
IOWA FALLS *   CLOUDY    34  32  93 NW18      29.75S WCI  23
$$

IAZ007>011-017>019-026>030-037>042-050>054-066-241400-
   NORTHEAST IOWA

CITY           SKY/WX    TMP DP  RH WIND       PRES   REMARKS
CEDAR RAPIDS   CLOUDY    34  33  96 N12       29.70R WCI  25
CHARLES CITY * MIX PCPN  34  34 100 N14       29.72F WCI  24
CLINTON *      CLOUDY    36  30  80 NW7       29.69F WCI  30
DECORAH *      CLOUDY    34  32  93 N9        29.69S WCI  26
DUBUQUE        CLOUDY    33  33 100 N9        29.67R FOG     WCI  25
MONTICELLO *   CLOUDY    34  34 100 NW9       29.69R WCI  26
OELWEIN *      CLOUDY    34  32  93 NW12      29.72R WCI  25
WATERLOO       LGT RAIN  34  32  92 NW12      29.73R WCI  25
$$

IAZ064-065-067-068-078-241400-
   EAST CENTRAL IOWA

CITY           SKY/WX    TMP DP  RH WIND       PRES   REMARKS
DAVENPORT      CLOUDY    35  32  88 NW7       29.67S FOG     WCI  29
IOWA CITY      CLOUDY    36  33  89 NW9       29.72R WCI  29
MT. PLEASANT * CLOUDY    34  34 100 NW8       29.71S FOG     WCI  27
MUSCATINE *    CLOUDY    36  34  93 NW8       29.71S FOG     WCI  29
QUAD CITIES    CLOUDY    36  32  85 N5        29.67F WCI  32
$$

IAZ062-063-075>077-085>089-095>099-241400-
   SOUTHEAST IOWA

CITY           SKY/WX    TMP DP  RH WIND       PRES   REMARKS
BURLINGTON     CLOUDY    36  34  92 NW8       29.69S FOG     WCI  30
FAIRFIELD *    CLOUDY    36  32  87 NW13      29.72R WCI  27
FORT MADISON * CLOUDY    37  36  93 NW7       29.71R WCI  32
KEOKUK *       CLOUDY    36  34  93 NW5       29.70R WCI  32
OSKALOOSA *    FLURRIES  34  32  93 N12       29.74R WCI  25
CENTERVILLE *  FLURRIES  32  32 100 NW10      29.75S WCI  24
OTTUMWA        CLOUDY    34  33  96 NW13      29.73R WCI  25
WASHINGTON *   CLOUDY    36  36 100 NW12      29.71S WCI  27
$$

ABBREVIATIONS USED IN REMARKS
   TC - TEMPERATURES IN CELSIUS
  WCI - WIND CHILL INDEX
   HX - HEAT INDEX
  VSB - VISIBILITY
$$



USA.gov is the U.S. government's official web portal to all federal, state and local government web resources and services.